User: anonymous   Login
Location: Unspecified
(0.0000°N, 0.0000°E)
Time: 16:07:28
(UTC+02:00)
Language:

Iridium 39 - Orbit

View from above orbital plane
View from above orbital plane
View from above satellite
View from above satellite

Ground track
Ground track

The orbit data is extracted from the following two-line orbital elements,

1 25042U 97069D   16182.00300123  .00000047  00000-0  87481-5 0  9995
2 25042  86.4011 169.4383 0004093 108.2997 251.8646 14.38384135975824
Epoch (UTC): 30 June 2016 00:04:19
Eccentricity: 0.0004093
inclination: 86.4011°
perigee height: 761 km
apogee height: 767 km
right ascension of ascending node: 169.4383°
argument of perigee: 108.2997°
revolutions per day: 14.38384135
mean anomaly at epoch: 251.8646°
orbit number at epoch: 97582

The dashed part of the orbit path shows where the satellite is in the earth's shadow,  

DLR